Kirksville, MO

6:00 PM CDT on October 23, 2017 (GMT -0500)
Kirksville Regional

Weather History for KIRK - June, 2013

Change the Weather History Date:

Wednesday, June 5, 2013

  Actual Average Record
Temperature  
Mean Temperature 64 °F 68 °F  
Max Temperature 72 °F 79 °F 97 °F (1933)
Min Temperature 55 °F 58 °F 41 °F (1988)
Degree Days  
Heating Degree Days 1 1  
Month to date heating degree days 25 5  
Since 1 June heating degree days 25 5  
Since 1 July heating degree days 6060 5845  
Cooling Degree Days 0 4  
Month to date cooling degree days 0 20  
Year to date cooling degree days 68 82  
Since 1 June cooling degree days 0 20  
Growing Degree Days 13 (Base 50)    
Moisture  
Dew Point 61 °F    
Average Humidity 87    
Maximum Humidity 100    
Minimum Humidity 73    
Precipitation  
Precipitation T in 0.18 in 2.24 in (1947)
Month to date precipitation T 0.91  
Year to date precipitation 24.47 15.06  
Sea Level Pressure  
Sea Level Pressure 29.97 in    
Wind  
Wind Speed 5 mph (North)    
Max Wind Speed 10 mph    
Max Gust Speed 13 mph    
Visibility 7 miles    
Events      
T = Trace of Precipitation, MM = Missing Value Source: NWS Daily Summary

Daily Weather History Graph

Daily Weather History Graph

Search for Another Location

Airport or City:

Trip Planner

Search our weather history database for the weather conditions in past years. The results will help you decide how hot, cold, wet, or windy it might be!

Date:

Astronomy

Jun. 05, 2013 Rise Set
Actual Time 5:41 AM CDT 8:36 PM CDT
Civil Twilight 5:09 AM CDT 9:08 PM CDT
Nautical Twilight 4:28 AM CDT 9:49 PM CDT
Astronomical Twilight 3:40 AM CDT 10:37 PM CDT
Moon 3:46 AM CDT (6/5) 6:03 PM CDT (6/5)
Length of Visible Light 15h 59m
Length of Day
14h 54m
Waning Crescent, 8% of the Moon is Illuminated
Jun 5
Waning Crescent
Jun 8
New
Jun 16
First Quarter
Jun 23
Full
Jun 29
Last Quarter

Hourly Weather History & Observations

Time (CDT) Temp. Dew Point Humidity Pressure Visibility Wind Dir Wind Speed Gust Speed Precip Events Conditions
12:55 AM 59.0 °F 57.0 °F 93% 30.04 in 9.0 mi South 3.5 mph - N/A   Clear
1:55 AM 59.0 °F 55.9 °F 90% 30.01 in 10.0 mi SE 6.9 mph - N/A   Clear
2:55 AM 55.9 °F 54.0 °F 93% 30.01 in 9.0 mi SE 5.8 mph - N/A   Scattered Clouds
3:55 AM 57.0 °F 55.0 °F 93% 30.01 in 9.0 mi ESE 4.6 mph - N/A   Partly Cloudy
4:55 AM 55.9 °F 54.0 °F 93% 30.02 in 8.0 mi SE 4.6 mph - N/A   Clear
5:55 AM 57.0 °F 55.0 °F 93% 30.00 in 6.0 mi SE 5.8 mph - N/A   Clear
6:55 AM 59.0 °F 55.9 °F 90% 29.98 in 7.0 mi ESE 4.6 mph - N/A   Scattered Clouds
7:55 AM 62.1 °F 57.9 °F 86% 29.99 in 8.0 mi ESE 5.8 mph - N/A   Clear
8:55 AM 64.9 °F 59.0 °F 81% 30.00 in 9.0 mi SSE 4.6 mph - N/A   Clear
9:55 AM 66.9 °F 61.0 °F 81% 30.00 in 9.0 mi SSE 8.1 mph - N/A   Clear
10:55 AM 70.0 °F 63.0 °F 78% 29.99 in 10.0 mi South 5.8 mph - N/A   Clear
11:55 AM 71.1 °F 63.0 °F 75% 29.99 in 10.0 mi WSW 6.9 mph - N/A   Scattered Clouds
12:55 PM 69.1 °F 62.1 °F 78% 29.99 in 10.0 mi SW 8.1 mph - N/A   Clear
1:55 PM 71.1 °F 62.1 °F 73% 29.96 in 10.0 mi Calm Calm - N/A   Partly Cloudy
2:55 PM 71.1 °F 64.0 °F 78% 29.94 in 10.0 mi North 3.5 mph - N/A   Partly Cloudy
3:55 PM 70.0 °F 62.1 °F 76% 29.93 in 10.0 mi NNW 4.6 mph - N/A   Mostly Cloudy
4:35 PM 69.8 °F 64.4 °F 83% 29.94 in 9.0 mi WNW 4.6 mph - N/A   Mostly Cloudy
4:55 PM 69.1 °F 63.0 °F 81% 29.94 in 9.0 mi WNW 4.6 mph - N/A   Overcast
5:03 PM 69.8 °F 64.4 °F 83% 29.94 in 9.0 mi NNW 3.5 mph - N/A   Overcast
5:55 PM 68.0 °F 64.0 °F 87% 29.94 in 7.0 mi NNW 3.5 mph - 0.00 in   Overcast
6:33 PM 66.2 °F 64.4 °F 94% 29.93 in 6.0 mi North 5.8 mph - N/A   Overcast
6:44 PM 66.2 °F 64.4 °F 94% 29.93 in 6.0 mi NNE 6.9 mph - N/A   Overcast
6:55 PM 66.0 °F 64.0 °F 93% 29.93 in 5.0 mi North 5.8 mph - N/A   Overcast
7:09 PM 66.2 °F 64.4 °F 94% 29.93 in 5.0 mi North 5.8 mph - N/A   Overcast
7:17 PM 66.2 °F 62.6 °F 88% 29.92 in 5.0 mi North 8.1 mph - N/A   Overcast
7:55 PM 64.9 °F 63.0 °F 93% 29.94 in 5.0 mi NNW 4.6 mph - 0.00 in   Overcast
8:08 PM 64.4 °F 62.6 °F 94% 29.94 in 6.0 mi North 4.6 mph - N/A   Overcast
8:55 PM 64.0 °F 62.1 °F 93% 29.94 in 7.0 mi North 3.5 mph - N/A   Scattered Clouds
9:55 PM 63.0 °F 61.0 °F 93% 29.95 in 5.0 mi NNW 3.5 mph - N/A   Mostly Cloudy
10:55 PM 62.1 °F 62.1 °F 100% 29.96 in 3.0 mi NW 3.5 mph - N/A   Overcast
11:27 PM 62.6 °F 62.6 °F 100% 29.96 in 4.0 mi NNW 5.8 mph - N/A   Overcast
11:38 PM 62.6 °F 62.6 °F 100% 29.96 in 4.0 mi NNW 5.8 mph - N/A   Scattered Clouds
11:55 PM 63.0 °F 62.1 °F 97% 29.96 in 4.0 mi NW 4.6 mph - N/A   Mostly Cloudy